Hourly Weather Lukina

Today, 15 May, Saturday

Time Temperature Precipitation Wind Pressure Humidity
00:00 +19°C° 0 mm 2 mps 749 mmHg 53%
01:00 +18°C° 0 mm 2 mps 749 mmHg 56%
02:00 +18°C° 0 mm 2 mps 749 mmHg 58%
03:00 +18°C° 0 mm 2 mps 749 mmHg 60%
04:00 +17°C° 0 mm 2 mps 749 mmHg 62%
05:00 +19°C° 0 mm 2 mps 749 mmHg 56%
06:00 +21°C° 0 mm 3 mps 748 mmHg 50%
07:00 +24°C° 0 mm 3 mps 748 mmHg 44%
08:00 +26°C° 0 mm 3 mps 748 mmHg 39%
09:00 +28°C° 0 mm 4 mps 748 mmHg 34%
10:00 +30°C° 0 mm 4 mps 748 mmHg 29%
11:00 +32°C° 0 mm 5 mps 747 mmHg 27%
12:00 +32°C° 0 mm 5 mps 747 mmHg 25%
13:00 +33°C° 0 mm 6 mps 747 mmHg 22%
14:00 +33°C° 0 mm 6 mps 747 mmHg 24%
15:00 +33°C° 0 mm 6 mps 747 mmHg 26%
16:00 +33°C° 0 mm 6 mps 747 mmHg 28%
17:00 +30°C° 0 mm 5 mps 747 mmHg 33%
18:00 +28°C° 0 mm 4 mps 746 mmHg 39%
19:00 +26°C° 0 mm 3 mps 746 mmHg 44%
20:00 +25°C° 0 mm 3 mps 746 mmHg 51%
21:00 +22°C° 0 mm 3 mps 746 mmHg 58%
22:00 +21°C° 0 mm 2 mps 746 mmHg 65%
23:00 +20°C° 0 mm 3 mps 746 mmHg 66%

Tomorrow, 16 May, Sunday

Time Temperature Precipitation Wind Pressure Humidity
00:00 +20°C° 0 mm 3 mps 746 mmHg 67%
01:00 +19°C° 0 mm 3 mps 746 mmHg 68%
02:00 +19°C° 0 mm 3 mps 746 mmHg 67%
03:00 +19°C° 0 mm 3 mps 746 mmHg 66%
04:00 +19°C° 0 mm 4 mps 746 mmHg 65%
05:00 +20°C° 0 mm 4 mps 746 mmHg 59%
06:00 +22°C° 0 mm 4 mps 747 mmHg 53%
07:00 +23°C° 0 mm 4 mps 747 mmHg 47%
08:00 +26°C° 0 mm 5 mps 747 mmHg 40%
09:00 +28°C° 0 mm 5 mps 747 mmHg 34%
10:00 +30°C° 0 mm 5 mps 747 mmHg 27%
11:00 +32°C° 0 mm 5 mps 747 mmHg 24%
12:00 +33°C° 0 mm 5 mps 747 mmHg 21%
13:00 +34°C° 0 mm 5 mps 747 mmHg 19%
14:00 +34°C° 0 mm 5 mps 747 mmHg 18%
15:00 +34°C° 0 mm 5 mps 746 mmHg 18%
16:00 +34°C° 0 mm 5 mps 746 mmHg 18%
17:00 +32°C° 0 mm 4 mps 746 mmHg 23%
18:00 +29°C° 0 mm 3 mps 746 mmHg 27%
19:00 +28°C° 0 mm 2 mps 746 mmHg 32%
20:00 +26°C° 0 mm 2 mps 746 mmHg 37%
21:00 +24°C° 0 mm 2 mps 746 mmHg 42%
22:00 +21°C° 0 mm 2 mps 746 mmHg 48%
23:00 +20°C° 0 mm 2 mps 746 mmHg 50%

Day after tomorrow, 17 May, Monday

Time Temperature Precipitation Wind Pressure Humidity
00:00 +20°C° 0 mm 3 mps 746 mmHg 53%
01:00 +19°C° 0 mm 3 mps 746 mmHg 56%
02:00 +19°C° 0 mm 3 mps 746 mmHg 56%
03:00 +19°C° 0 mm 3 mps 746 mmHg 55%
04:00 +19°C° 0 mm 3 mps 746 mmHg 55%
05:00 +21°C° 0 mm 3 mps 746 mmHg 51%
06:00 +22°C° 0 mm 4 mps 746 mmHg 47%
07:00 +25°C° 0 mm 4 mps 746 mmHg 43%
08:00 +27°C° 0 mm 5 mps 746 mmHg 38%
09:00 +29°C° 0 mm 5 mps 746 mmHg 32%
10:00 +30°C° 0 mm 5 mps 746 mmHg 27%
11:00 +32°C° 0 mm 6 mps 745 mmHg 25%
12:00 +32°C° 0 mm 6 mps 745 mmHg 24%
13:00 +32°C° 0 mm 7 mps 745 mmHg 22%
14:00 +32°C° 0 mm 6 mps 745 mmHg 23%
15:00 +32°C° 0 mm 6 mps 745 mmHg 25%
16:00 +32°C° 0 mm 5 mps 745 mmHg 26%
17:00 +30°C° 0 mm 5 mps 744 mmHg 29%
18:00 +28°C° 0 mm 5 mps 744 mmHg 33%
19:00 +27°C° 0 mm 5 mps 744 mmHg 36%
20:00 +25°C° 0 mm 4 mps 744 mmHg 40%
21:00 +23°C° 0 mm 4 mps 744 mmHg 45%
22:00 +22°C° 0 mm 3 mps 744 mmHg 49%
23:00 +20°C° 0 mm 3 mps 744 mmHg 53%

18 May, Tuesday

Time Temperature Precipitation Wind Pressure Humidity
00:00 +19°C° 0 mm 2 mps 744 mmHg 58%
01:00 +18°C° 0 mm 2 mps 744 mmHg 62%
02:00 +18°C° 0 mm 2 mps 745 mmHg 63%
03:00 +18°C° 0 mm 2 mps 745 mmHg 64%
04:00 +17°C° 0 mm 2 mps 745 mmHg 65%
05:00 +19°C° 0 mm 2 mps 745 mmHg 61%
06:00 +20°C° 0 mm 2 mps 745 mmHg 56%
07:00 +23°C° 0 mm 2 mps 745 mmHg 51%
08:00 +24°C° 0 mm 3 mps 745 mmHg 47%
09:00 +26°C° 0 mm 4 mps 744 mmHg 42%
10:00 +27°C° 0 mm 5 mps 744 mmHg 37%
11:00 +28°C° 0 mm 5 mps 744 mmHg 33%
12:00 +28°C° 0 mm 6 mps 744 mmHg 29%
13:00 +29°C° 0 mm 7 mps 744 mmHg 26%
14:00 +27°C° 0 mm 6 mps 744 mmHg 30%
15:00 +26°C° 0 mm 6 mps 744 mmHg 35%
16:00 +23°C° 0 mm 6 mps 745 mmHg 40%
17:00 +22°C° 0 mm 6 mps 745 mmHg 48%
18:00 +20°C° 0 mm 5 mps 746 mmHg 55%
19:00 +19°C° 0 mm 5 mps 746 mmHg 63%
20:00 +16°C° 0 mm 5 mps 747 mmHg 67%
21:00 +15°C° 0 mm 4 mps 748 mmHg 71%
22:00 +14°C° 0 mm 3 mps 748 mmHg 76%
23:00 +13°C° 0 mm 3 mps 749 mmHg 79%

19 May, Wednesday

Time Temperature Precipitation Wind Pressure Humidity
00:00 +12°C° 0 mm 3 mps 749 mmHg 83%
01:00 +12°C° 0 mm 2 mps 749 mmHg 86%
02:00 +10°C° 0 mm 2 mps 749 mmHg 89%
03:00 +10°C° 0 mm 2 mps 750 mmHg 91%
04:00 +9°C° 0 mm 2 mps 750 mmHg 94%
05:00 +12°C° 0 mm 2 mps 751 mmHg 85%
06:00 +13°C° 0 mm 2 mps 751 mmHg 76%
07:00 +14°C° 0 mm 2 mps 751 mmHg 67%
08:00 +16°C° 0 mm 2 mps 751 mmHg 60%
09:00 +17°C° 0 mm 2 mps 751 mmHg 53%
10:00 +19°C° 0 mm 2 mps 751 mmHg 46%
11:00 +20°C° 0 mm 2 mps 751 mmHg 41%
12:00 +21°C° 0 mm 2 mps 751 mmHg 36%
13:00 +23°C° 0 mm 2 mps 751 mmHg 31%
14:00 +23°C° 0 mm 2 mps 751 mmHg 30%
15:00 +24°C° 0 mm 2 mps 750 mmHg 29%
16:00 +24°C° 0 mm 2 mps 750 mmHg 28%
17:00 +23°C° 0 mm 2 mps 750 mmHg 32%
18:00 +21°C° 0 mm 2 mps 750 mmHg 36%
19:00 +20°C° 0 mm 2 mps 750 mmHg 40%
20:00 +18°C° 0 mm 2 mps 750 mmHg 45%
21:00 +16°C° 0 mm 2 mps 750 mmHg 49%
22:00 +15°C° 0 mm 2 mps 750 mmHg 53%
23:00 +14°C° 0 mm 2 mps 750 mmHg 56%

20 May, Thursday

Time Temperature Precipitation Wind Pressure Humidity
00:00 +13°C° 0 mm 2 mps 751 mmHg 59%
01:00 +13°C° 0 mm 2 mps 751 mmHg 62%
02:00 +12°C° 0 mm 2 mps 751 mmHg 65%
03:00 +12°C° 0 mm 2 mps 751 mmHg 68%
04:00 +12°C° 0 mm 2 mps 751 mmHg 71%
05:00 +14°C° 0 mm 2 mps 751 mmHg 64%
06:00 +16°C° 0 mm 3 mps 751 mmHg 57%
07:00 +18°C° 0 mm 3 mps 751 mmHg 50%
08:00 +20°C° 0 mm 3 mps 751 mmHg 45%
09:00 +22°C° 0 mm 4 mps 751 mmHg 41%
10:00 +23°C° 0 mm 4 mps 751 mmHg 37%
11:00 +25°C° 0 mm 4 mps 751 mmHg 34%
12:00 +26°C° 0 mm 4 mps 751 mmHg 31%
13:00 +27°C° 0 mm 4 mps 750 mmHg 29%
14:00 +27°C° 0 mm 4 mps 750 mmHg 28%
15:00 +27°C° 0 mm 5 mps 750 mmHg 28%
16:00 +27°C° 0 mm 5 mps 750 mmHg 27%
17:00 +26°C° 0 mm 4 mps 749 mmHg 31%
18:00 +25°C° 0 mm 4 mps 749 mmHg 35%
19:00 +24°C° 0 mm 3 mps 749 mmHg 39%
20:00 +22°C° 0 mm 3 mps 749 mmHg 42%
21:00 +21°C° 0 mm 3 mps 749 mmHg 45%
22:00 +19°C° 0 mm 4 mps 749 mmHg 49%
23:00 +19°C° 0 mm 3 mps 749 mmHg 51%
Show more

We Need Your Consent

Meteoprog and our Service Providers may store and access personal data such as cookies, device identifiers or other similar technologies on your device and process such data to personalise content and ads, as well as provide social media features and to analyse the traffic.

  • Store and/or access information on your device

    Cookies, device identifiers or other information can be stored or accessed on your device for the purposes indicated above.

  • Personalised ads and content, ad and content measurement, audience insights, and products development

    Ads and content can be personalised based on a profile. More data can be added to better personalise ads and content. Ad and content performance can be measured. Insights about the audience who saw the ads and content can be derived. Such data can be used to develop or improve user’s experience, systems and software.

By clicking ‘I Agree’ you will allow the use of indicated cookies, device identifiers, web beacons or other similar technologies. Your settings can be changed in the browser on your device.

For certain purposes, legitimate interests may be relied on, rather than consent. You can read more about this in our Privacy and Cookie Policy.